When you browse on this site, cookies collect data to enhance your experience and personalize the content and advertising you see.
Visit our Privacy Policy to learn more. By continuing to use the site, you agree to this use of cookies and data.
  • In Spain
  • List of Countries
  • For 7 days
  • Water Temperature
  • Weather Map
  • Weather Widgets
  • user-avatar
    Login

    Hourly Weather Romny

    Today, 10 April, Friday

    Time Temperature Precipitation Wind Pressure Humidity
    00:00 +10°C° 0 mm 3 mps 746 mmHg 55%
    01:00 +9°C° 0 mm 3 mps 745 mmHg 57%
    02:00 +8°C° 0 mm 4 mps 745 mmHg 56%
    03:00 +9°C° 0 mm 3 mps 744 mmHg 58%
    04:00 +9°C° 0 mm 3 mps 744 mmHg 60%
    05:00 +9°C° 0 mm 3 mps 744 mmHg 61%
    06:00 +9°C° 0 mm 3 mps 744 mmHg 66%
    07:00 +10°C° 0 mm 4 mps 744 mmHg 71%
    08:00 +10°C° 0 mm 5 mps 744 mmHg 74%
    09:00 +10°C° 0.1 mm 5 mps 744 mmHg 71%
    10:00 +11°C° 0.1 mm 6 mps 744 mmHg 67%
    11:00 +11°C° 0.1 mm 7 mps 745 mmHg 63%
    12:00 +11°C° 0 mm 7 mps 745 mmHg 57%
    13:00 +11°C° 0 mm 7 mps 745 mmHg 50%
    14:00 +12°C° 0 mm 7 mps 746 mmHg 44%
    15:00 +11°C° 0 mm 7 mps 746 mmHg 44%
    16:00 +10°C° 0 mm 6 mps 746 mmHg 45%
    17:00 +10°C° 0 mm 6 mps 746 mmHg 45%
    18:00 +9°C° 0 mm 6 mps 747 mmHg 49%
    19:00 +8°C° 0 mm 5 mps 747 mmHg 52%
    20:00 +7°C° 0 mm 5 mps 747 mmHg 56%
    21:00 +6°C° 0 mm 5 mps 748 mmHg 57%
    22:00 +5°C° 0 mm 4 mps 748 mmHg 59%
    23:00 +5°C° 0 mm 4 mps 748 mmHg 61%

    Tomorrow, 11 April, Saturday

    Time Temperature Precipitation Wind Pressure Humidity
    00:00 +4°C° 0 mm 4 mps 748 mmHg 63%
    01:00 +4°C° 0 mm 4 mps 748 mmHg 64%
    02:00 +3°C° 0 mm 4 mps 749 mmHg 66%
    03:00 +3°C° 0 mm 4 mps 749 mmHg 68%
    04:00 +1°C° 0 mm 4 mps 749 mmHg 70%
    05:00 +1°C° 0 mm 4 mps 749 mmHg 71%
    06:00 +3°C° 0 mm 4 mps 749 mmHg 66%
    07:00 +3°C° 0 mm 5 mps 749 mmHg 60%
    08:00 +4°C° 0 mm 6 mps 749 mmHg 55%
    09:00 +5°C° 0.1 mm 6 mps 749 mmHg 52%
    10:00 +7°C° 0.1 mm 6 mps 749 mmHg 48%
    11:00 +8°C° 0.1 mm 7 mps 749 mmHg 45%
    12:00 +8°C° 0.2 mm 7 mps 749 mmHg 44%
    13:00 +9°C° 0.2 mm 7 mps 749 mmHg 43%
    14:00 +9°C° 0.2 mm 8 mps 749 mmHg 42%
    15:00 +7°C° 0.2 mm 8 mps 750 mmHg 45%
    16:00 +6°C° 0.2 mm 7 mps 750 mmHg 48%
    17:00 +6°C° 0.2 mm 7 mps 750 mmHg 50%
    18:00 +5°C° 0 mm 6 mps 751 mmHg 53%
    19:00 +5°C° 0 mm 5 mps 751 mmHg 56%
    20:00 +4°C° 0 mm 4 mps 752 mmHg 59%
    21:00 +3°C° 0 mm 4 mps 752 mmHg 61%
    22:00 +3°C° 0 mm 4 mps 753 mmHg 63%
    23:00 +1°C° 0 mm 4 mps 753 mmHg 65%

    Day after tomorrow, 12 April, Sunday

    Time Temperature Precipitation Wind Pressure Humidity
    00:00 +1°C° 0 mm 4 mps 753 mmHg 66%
    01:00 0°C° 0 mm 4 mps 754 mmHg 68%
    02:00 0°C° 0 mm 4 mps 754 mmHg 69%
    03:00 -1°C° 0 mm 4 mps 754 mmHg 69%
    04:00 0°C° 0 mm 3 mps 754 mmHg 69%
    05:00 -1°C° 0 mm 3 mps 755 mmHg 69%
    06:00 +1°C° 0 mm 3 mps 755 mmHg 61%
    07:00 +2°C° 0 mm 3 mps 755 mmHg 54%
    08:00 +3°C° 0 mm 3 mps 755 mmHg 47%
    09:00 +4°C° 0 mm 3 mps 755 mmHg 42%
    10:00 +7°C° 0 mm 3 mps 755 mmHg 37%
    11:00 +8°C° 0 mm 3 mps 755 mmHg 32%
    12:00 +8°C° 0 mm 3 mps 755 mmHg 31%
    13:00 +9°C° 0 mm 3 mps 755 mmHg 30%
    14:00 +9°C° 0 mm 3 mps 754 mmHg 29%
    15:00 +9°C° 0 mm 3 mps 754 mmHg 30%
    16:00 +9°C° 0 mm 3 mps 754 mmHg 31%
    17:00 +9°C° 0 mm 3 mps 753 mmHg 32%
    18:00 +8°C° 0 mm 3 mps 753 mmHg 36%
    19:00 +7°C° 0 mm 2 mps 753 mmHg 40%
    20:00 +6°C° 0 mm 2 mps 753 mmHg 44%
    21:00 +5°C° 0 mm 2 mps 753 mmHg 45%
    22:00 +5°C° 0 mm 2 mps 752 mmHg 46%
    23:00 +4°C° 0 mm 2 mps 752 mmHg 47%

    13 April, Monday

    Time Temperature Precipitation Wind Pressure Humidity
    00:00 +3°C° 0 mm 3 mps 752 mmHg 47%
    01:00 +2°C° 0 mm 3 mps 752 mmHg 48%
    02:00 +2°C° 0 mm 3 mps 751 mmHg 49%
    03:00 +2°C° 0 mm 3 mps 751 mmHg 50%
    04:00 +1°C° 0 mm 3 mps 751 mmHg 52%
    05:00 0°C° 0 mm 4 mps 750 mmHg 53%
    06:00 +3°C° 0 mm 4 mps 750 mmHg 51%
    07:00 +5°C° 0 mm 5 mps 750 mmHg 49%
    08:00 +7°C° 0 mm 6 mps 749 mmHg 48%
    09:00 +8°C° 0 mm 6 mps 749 mmHg 47%
    10:00 +10°C° 0 mm 7 mps 748 mmHg 46%
    11:00 +12°C° 0 mm 8 mps 748 mmHg 45%
    12:00 +13°C° 0 mm 8 mps 747 mmHg 44%
    13:00 +15°C° 0 mm 8 mps 746 mmHg 42%
    14:00 +15°C° 0 mm 8 mps 746 mmHg 41%
    15:00 +15°C° 0 mm 8 mps 745 mmHg 43%
    16:00 +15°C° 0 mm 7 mps 744 mmHg 46%
    17:00 +15°C° 0 mm 7 mps 744 mmHg 49%
    18:00 +14°C° 0 mm 7 mps 743 mmHg 51%
    19:00 +12°C° 0 mm 7 mps 743 mmHg 54%
    20:00 +11°C° 0 mm 8 mps 743 mmHg 56%
    21:00 +11°C° 0 mm 8 mps 742 mmHg 56%
    22:00 +10°C° 0 mm 9 mps 742 mmHg 57%
    23:00 +8°C° 0 mm 9 mps 741 mmHg 57%

    14 April, Tuesday

    Time Temperature Precipitation Wind Pressure Humidity
    00:00 +8°C° 0 mm 9 mps 741 mmHg 57%
    01:00 +7°C° 0 mm 9 mps 740 mmHg 56%
    02:00 +7°C° 0 mm 8 mps 739 mmHg 56%
    03:00 +6°C° 0 mm 9 mps 739 mmHg 55%
    04:00 +6°C° 0 mm 9 mps 739 mmHg 53%
    05:00 +5°C° 0 mm 9 mps 738 mmHg 52%
    06:00 +5°C° 0.4 mm 9 mps 738 mmHg 61%
    07:00 +5°C° 0.4 mm 8 mps 738 mmHg 69%
    08:00 +5°C° 0.4 mm 8 mps 738 mmHg 78%
    09:00 +4°C° 1.6 mm 7 mps 738 mmHg 82%
    10:00 +4°C° 1.6 mm 6 mps 739 mmHg 86%
    11:00 +5°C° 1.6 mm 5 mps 739 mmHg 89%
    12:00 +3°C° 0.7 mm 5 mps 739 mmHg 90%
    13:00 +3°C° 0.7 mm 5 mps 740 mmHg 90%
    14:00 +2°C° 0.7 mm 5 mps 740 mmHg 90%
    15:00 +2°C° 0.1 mm 5 mps 740 mmHg 86%
    16:00 +2°C° 0.1 mm 5 mps 740 mmHg 82%
    17:00 +3°C° 0.1 mm 4 mps 741 mmHg 78%
    18:00 +3°C° 0 mm 4 mps 741 mmHg 74%
    19:00 +3°C° 0 mm 3 mps 741 mmHg 71%
    20:00 +3°C° 0 mm 2 mps 741 mmHg 68%
    21:00 +3°C° 0 mm 2 mps 741 mmHg 68%
    22:00 +3°C° 0 mm 2 mps 741 mmHg 68%
    23:00 +1°C° 0 mm 3 mps 741 mmHg 69%

    15 April, Wednesday

    Time Temperature Precipitation Wind Pressure Humidity
    00:00 +1°C° 0 mm 3 mps 741 mmHg 70%
    01:00 0°C° 0 mm 3 mps 741 mmHg 72%
    02:00 0°C° 0 mm 3 mps 741 mmHg 74%
    03:00 -1°C° 0 mm 3 mps 741 mmHg 77%
    04:00 -1°C° 0 mm 3 mps 741 mmHg 79%
    05:00 -2°C° 0 mm 3 mps 741 mmHg 82%
    06:00 0°C° 0 mm 3 mps 741 mmHg 80%
    07:00 +1°C° 0 mm 3 mps 741 mmHg 78%
    08:00 +2°C° 0 mm 3 mps 740 mmHg 76%
    09:00 +2°C° 0.3 mm 3 mps 740 mmHg 77%
    10:00 +2°C° 0.3 mm 3 mps 740 mmHg 78%
    11:00 +2°C° 0.3 mm 3 mps 740 mmHg 79%
    12:00 +3°C° 0.2 mm 4 mps 740 mmHg 75%
    13:00 +4°C° 0.2 mm 4 mps 740 mmHg 71%
    14:00 +4°C° 0.2 mm 4 mps 740 mmHg 66%
    15:00 +3°C° 0.1 mm 5 mps 740 mmHg 65%
    16:00 +3°C° 0.1 mm 5 mps 740 mmHg 64%
    17:00 +3°C° 0.1 mm 5 mps 740 mmHg 63%
    18:00 +2°C° 0.1 mm 5 mps 741 mmHg 67%
    19:00 +3°C° 0.1 mm 4 mps 741 mmHg 70%
    20:00 +1°C° 0.1 mm 4 mps 741 mmHg 74%
    21:00 +1°C° 0 mm 4 mps 741 mmHg 76%
    22:00 0°C° 0 mm 4 mps 741 mmHg 78%
    23:00 0°C° 0 mm 4 mps 741 mmHg 80%
    Show more